Nogales, AZ

11:12 AM MST on February 20, 2018 (GMT -0700)
Nogales International

Weather History for KOLS - October, 2012

Change the Weather History Date:

Sunday, October 28, 2012

  Actual Average (KFHU) Record (KFHU)
Temperature  
Mean Temperature 65 °F -  
Max Temperature 84 °F 70 °F 86 °F (1987)
Min Temperature 46 °F 48 °F 36 °F (1989)
Growing Degree Days 15 (Base 50)    
Moisture  
Dew Point 28 °F    
Average Humidity 29    
Maximum Humidity 50    
Minimum Humidity 11    
Precipitation  
Precipitation 0.00 in - - ()
Sea Level Pressure  
Sea Level Pressure 29.94 in    
Wind  
Wind Speed 4 mph (SE)    
Max Wind Speed 9 mph    
Max Gust Speed -    
Visibility 10 miles    
Events      
Averages and records for this station are not official NWS values.
T = Trace of Precipitation, MM = Missing Value Source: NWS Daily Summary

Daily Weather History Graph

Daily Weather History Graph

Search for Another Location

Airport or City:

Trip Planner

Search our weather history database for the weather conditions in past years. The results will help you decide how hot, cold, wet, or windy it might be!

Date:

Astronomy

Oct. 28, 2012 Rise Set
Actual Time 6:36 AM MST 5:37 PM MST
Civil Twilight 6:11 AM MST 6:02 PM MST
Nautical Twilight 5:42 AM MST 6:30 PM MST
Astronomical Twilight 5:14 AM MST 6:59 PM MST
Moon 4:56 PM MST (10/28) 5:34 AM MST (10/28)
Length of Visible Light 11h 50m
Length of Day
11h 00m
Waxing Gibbous, 99% of the Moon is Illuminated
Oct 28
Waxing Gibbous
Oct 29
Full
Nov 6
Last Quarter
Nov 13
New
Nov 20
First Quarter

Hourly Weather History & Observations

Time (MST) Temp. Dew Point Humidity Pressure Visibility Wind Dir Wind Speed Gust Speed Precip Events Conditions
12:54 AM 53.1 °F 28.0 °F 38% 29.91 in 10.0 mi East 6.9 mph - N/A   Clear
1:54 AM 52.0 °F 28.9 °F 41% 29.90 in 10.0 mi East 3.5 mph - N/A   Clear
2:54 AM 48.9 °F 28.9 °F 46% 29.90 in 10.0 mi Calm Calm - N/A   Clear
3:54 AM 48.9 °F 28.9 °F 46% 29.91 in 10.0 mi Calm Calm - N/A   Clear
4:54 AM 48.0 °F 28.0 °F 46% 29.92 in 10.0 mi SSE 3.5 mph - N/A   Clear
5:54 AM 46.9 °F 28.0 °F 48% 29.94 in 10.0 mi SSE 3.5 mph - N/A   Clear
6:54 AM 46.9 °F 28.9 °F 50% 29.96 in 10.0 mi Calm Calm - N/A   Clear
7:54 AM 55.0 °F 30.0 °F 38% 29.97 in 10.0 mi South 3.5 mph - N/A   Clear
8:54 AM 63.0 °F 30.9 °F 30% 29.97 in 10.0 mi South 4.6 mph - N/A   Clear
9:54 AM 73.4 °F 30.2 °F 20% 30.11 in 10.0 mi South 3.5 mph - N/A   Clear
10:54 AM 78.1 °F 30.0 °F 17% 29.95 in 10.0 mi Variable 3.5 mph - N/A   Clear
11:54 AM 81.0 °F 28.9 °F 15% 29.94 in 10.0 mi Variable 3.5 mph - N/A   Clear
12:54 PM 84.0 °F 27.0 °F 13% 29.90 in 10.0 mi Variable 4.6 mph - N/A   Clear
1:54 PM 82.9 °F 25.0 °F 12% 29.88 in 10.0 mi Calm Calm - N/A   Clear
2:54 PM 84.0 °F 23.0 °F 11% 29.88 in 10.0 mi Variable 5.8 mph - N/A   Clear
3:54 PM 84.9 °F 25.0 °F 11% 29.88 in 10.0 mi NNW 9.2 mph - N/A   Clear
4:54 PM 82.0 °F 27.0 °F 13% 29.89 in 10.0 mi WNW 5.8 mph - N/A   Clear
5:54 PM 75.9 °F 28.0 °F 17% 29.92 in 10.0 mi West 5.8 mph - N/A   Clear
6:54 PM 69.1 °F 30.0 °F 23% 29.96 in 10.0 mi Calm Calm - N/A   Clear
7:54 PM 63.0 °F 30.0 °F 29% 29.98 in 10.0 mi Calm Calm - N/A   Clear
8:54 PM 61.0 °F 30.0 °F 31% 29.99 in 10.0 mi East 6.9 mph - N/A   Clear
9:54 PM 59.0 °F 28.9 °F 32% 29.99 in 10.0 mi East 5.8 mph - N/A   Clear
10:54 PM 55.9 °F 28.9 °F 36% 29.99 in 10.0 mi Calm Calm - N/A   Clear
11:54 PM 55.9 °F 28.9 °F 36% 30.00 in 10.0 mi East 3.5 mph - N/A   Clear